Frisco, NC

3:07 PM EST on January 19, 2017 (GMT -0500)
Mitchell

Weather History for KHSE - January, 2016

Change the Weather History Date:

Thursday, January 21, 2016

  Actual Average Record
Temperature  
Mean Temperature 38 °F 45 °F  
Max Temperature 41 °F 52 °F 73 °F (1937)
Min Temperature 34 °F 39 °F 6 °F (1985)
Degree Days  
Heating Degree Days 27 20  
Month to date heating degree days 390 413  
Since 1 July heating degree days 685 1220  
Cooling Degree Days 0 0  
Month to date cooling degree days 0 0  
Year to date cooling degree days 0 0  
Moisture  
Dew Point 25 °F    
Average Humidity 63    
Maximum Humidity 75    
Minimum Humidity 50    
Precipitation  
Precipitation 0.00 in 0.17 in 1.85 in (2010)
Month to date precipitation 2.96 3.57  
Year to date precipitation 2.96 3.57  
Snow  
Snow 0.00 in - - ()
Month to date snowfall T  
Since 1 July snowfall T  
Snow Depth 0.00 in    
Sea Level Pressure  
Sea Level Pressure 30.24 in    
Wind  
Wind Speed 8 mph (North)    
Max Wind Speed 15 mph    
Max Gust Speed 23 mph    
Visibility 10 miles    
Events      
T = Trace of Precipitation, MM = Missing Value Source: NWS Daily Summary

Daily Weather History Graph

Daily Weather History Graph

Search for Another Location

Airport or City:

Trip Planner

Search our weather history database for the weather conditions in past years. The results will help you decide how hot, cold, wet, or windy it might be!

Date:

Astronomy

Jan. 21, 2016 Rise Set
Actual Time 7:08 AM EST 5:19 PM EST
Civil Twilight 6:41 AM EST 5:46 PM EST
Nautical Twilight 6:10 AM EST 6:17 PM EST
Astronomical Twilight 5:40 AM EST 6:47 PM EST
Moon 3:23 PM EST (1/21) 4:46 AM EST (1/21)
Length of Visible Light 11h 05m
Length of Day
10h 10m
Waxing Gibbous, 94% of the Moon is Illuminated
Jan 21
Waxing Gibbous
Jan 23
Full
Jan 31
Last Quarter
Feb 8
New
Feb 15
First Quarter

Hourly Weather History & Observations

Time (EST) Temp. Windchill Dew Point Humidity Pressure Visibility Wind Dir Wind Speed Gust Speed Precip Events Conditions
12:51 AM 36.0 °F 31.1 °F 25.0 °F 64% 30.16 in 10.0 mi WNW 5.8 mph - N/A   Overcast
1:51 AM 37.0 °F 32.4 °F 24.1 °F 59% 30.16 in 10.0 mi West 5.8 mph - N/A   Overcast
2:51 AM 37.9 °F 32.1 °F 23.0 °F 55% 30.16 in 10.0 mi West 8.1 mph 17.3 mph N/A   Overcast
3:51 AM 37.9 °F 30.9 °F 23.0 °F 55% 30.15 in 10.0 mi WNW 10.4 mph - N/A   Overcast
4:51 AM 37.9 °F 30.5 °F 24.1 °F 57% 30.16 in 10.0 mi WNW 11.5 mph - N/A   Clear
5:51 AM 37.9 °F 31.5 °F 25.0 °F 60% 30.19 in 10.0 mi NW 9.2 mph 19.6 mph N/A   Clear
6:51 AM 37.0 °F 30.4 °F 27.0 °F 67% 30.20 in 10.0 mi NNW 9.2 mph 18.4 mph N/A   Clear
7:51 AM 36.0 °F 31.1 °F 27.0 °F 70% 30.23 in 10.0 mi Variable 5.8 mph 18.4 mph N/A   Clear
8:51 AM 36.0 °F 29.6 °F 28.0 °F 73% 30.25 in 10.0 mi NNW 8.1 mph - N/A   Scattered Clouds
9:51 AM 39.0 °F 33.4 °F 27.0 °F 62% 30.25 in 10.0 mi North 8.1 mph 16.1 mph N/A   Clear
10:51 AM 39.9 °F 33.9 °F 25.0 °F 55% 30.26 in 10.0 mi North 9.2 mph 19.6 mph N/A   Clear
11:51 AM 39.9 °F 33.4 °F 25.0 °F 55% 30.26 in 10.0 mi NNE 10.4 mph 19.6 mph N/A   Clear
12:51 PM 39.9 °F 34.5 °F 23.0 °F 51% 30.25 in 10.0 mi NNE 8.1 mph 17.3 mph N/A   Clear
1:51 PM 39.9 °F 32.9 °F 23.0 °F 51% 30.24 in 10.0 mi NNE 11.5 mph 18.4 mph N/A   Clear
2:51 PM 37.9 °F 30.0 °F 25.0 °F 60% 30.23 in 10.0 mi NNE 12.7 mph 19.6 mph N/A   Clear
3:51 PM 37.0 °F 31.0 °F 25.0 °F 62% 30.24 in 10.0 mi NNE 8.1 mph 17.3 mph N/A   Clear
4:51 PM 36.0 °F 29.6 °F 25.0 °F 64% 30.25 in 10.0 mi NNE 8.1 mph - N/A   Clear
5:51 PM 35.1 °F 30.1 °F 25.0 °F 67% 30.27 in 10.0 mi Variable 5.8 mph - N/A   Clear
6:51 PM 35.1 °F 30.1 °F 25.0 °F 67% 30.29 in 10.0 mi Variable 5.8 mph - N/A   Clear
7:51 PM 35.1 °F 30.1 °F 25.0 °F 67% 30.30 in 10.0 mi Variable 5.8 mph - N/A   Clear
8:51 PM 34.0 °F 31.0 °F 25.0 °F 70% 30.30 in 10.0 mi NE 3.5 mph - N/A   Clear
9:51 PM 35.1 °F 29.3 °F 24.1 °F 64% 30.29 in 10.0 mi NNE 6.9 mph - N/A   Clear
10:51 PM 35.1 °F 30.1 °F 23.0 °F 61% 30.30 in 10.0 mi Variable 5.8 mph - N/A   Clear
11:51 PM 35.1 °F 29.3 °F 21.9 °F 59% 30.27 in 10.0 mi NNE 6.9 mph - N/A   Clear